Location: Newark
(41.0400°S, 62.7845°W)
Time: 16:16:26
(UTC+00:00)

DIWATA 2B (PO-101) - Pass Details

Date: 04 February 2022
Orbit: 584 x 598 km, 98.0° (Epoch: 22 May)

Event Time Altitude Azimuth Distance (km) Brightness Sun altitude
Rises 05:56:51 0° 155° (SSE) 2,864 ? -28.9°
Reaches altitude 10° 05:59:21 10° 142° (SE) 1,950 ? -28.7°
Enters shadow 06:02:32 26° 94° (E) 1,198 ? -28.4°
